Year,Month,Day,Hour,Minute,Value (Times are PST for temperature in C)
2015,07,02,00,00,22.90
2015,07,02,00,01,22.90
2015,07,02,00,02,22.90
2015,07,02,00,03,22.90
2015,07,02,00,04,22.80
2015,07,02,00,05,22.80
2015,07,02,00,06,22.80
2015,07,02,00,07,22.70
2015,07,02,00,08,22.70
2015,07,02,00,09,22.70
2015,07,02,00,10,22.60
2015,07,02,00,11,22.60
2015,07,02,00,12,22.60
2015,07,02,00,13,22.60
2015,07,02,00,14,22.60
2015,07,02,00,15,22.50
2015,07,02,00,16,22.50
2015,07,02,00,17,22.40
2015,07,02,00,18,22.40
2015,07,02,00,19,22.40
2015,07,02,00,20,22.40
2015,07,02,00,21,22.30
2015,07,02,00,22,22.30
2015,07,02,00,23,22.30
2015,07,02,00,24,22.30
2015,07,02,00,25,22.20
2015,07,02,00,26,22.20
2015,07,02,00,27,22.20
2015,07,02,00,28,22.20
2015,07,02,00,29,22.20
2015,07,02,00,30,22.20
2015,07,02,00,31,22.20
2015,07,02,00,32,22.20
2015,07,02,00,33,22.10
2015,07,02,00,34,22.10
2015,07,02,00,35,22.10
2015,07,02,00,36,22.10
2015,07,02,00,37,22.00
2015,07,02,00,38,22.00
2015,07,02,00,39,22.00
2015,07,02,00,40,22.00
2015,07,02,00,41,21.90
2015,07,02,00,42,21.90
2015,07,02,00,43,21.90
2015,07,02,00,44,21.90
2015,07,02,00,45,21.90
2015,07,02,00,46,21.90
2015,07,02,00,47,21.90
2015,07,02,00,48,21.90
2015,07,02,00,49,21.90
2015,07,02,00,50,21.90
2015,07,02,00,51,21.90
2015,07,02,00,52,21.90
2015,07,02,00,53,21.90
2015,07,02,00,54,21.90
2015,07,02,00,55,21.90
2015,07,02,00,56,21.90
2015,07,02,00,57,21.90
2015,07,02,00,58,21.90
2015,07,02,00,59,21.90
2015,07,02,01,00,21.90
2015,07,02,01,01,21.90
2015,07,02,01,02,21.90
2015,07,02,01,03,21.80
2015,07,02,01,04,21.80
2015,07,02,01,05,21.80
2015,07,02,01,06,21.80
2015,07,02,01,07,21.80
2015,07,02,01,08,21.90
2015,07,02,01,09,21.90
2015,07,02,01,10,21.90
2015,07,02,01,11,21.90
2015,07,02,01,12,21.90
2015,07,02,01,13,21.90
2015,07,02,01,14,21.90
2015,07,02,01,15,21.90
2015,07,02,01,16,21.90
2015,07,02,01,17,21.90
2015,07,02,01,18,21.80
2015,07,02,01,19,21.80
2015,07,02,01,20,21.80
2015,07,02,01,21,21.80
2015,07,02,01,22,21.80
2015,07,02,01,23,21.70
2015,07,02,01,24,21.70
2015,07,02,01,25,21.70
2015,07,02,01,26,21.70
2015,07,02,01,27,21.70
2015,07,02,01,28,21.70
2015,07,02,01,29,21.70
2015,07,02,01,30,21.70
2015,07,02,01,31,21.70
2015,07,02,01,32,21.70
2015,07,02,01,33,21.70
2015,07,02,01,34,21.70
2015,07,02,01,35,21.70
2015,07,02,01,36,21.70
2015,07,02,01,37,21.70
2015,07,02,01,38,21.60
2015,07,02,01,39,21.60
2015,07,02,01,40,21.60
2015,07,02,01,41,21.60
2015,07,02,01,42,21.60
2015,07,02,01,43,21.50
2015,07,02,01,44,21.50
2015,07,02,01,45,21.40
2015,07,02,01,46,21.40
2015,07,02,01,47,21.40
2015,07,02,01,48,21.40
2015,07,02,01,49,21.30
2015,07,02,01,50,21.30
2015,07,02,01,51,21.30
2015,07,02,01,52,21.30
2015,07,02,01,53,21.30
2015,07,02,01,54,21.30
2015,07,02,01,55,21.30
2015,07,02,01,56,21.30
2015,07,02,01,57,21.30
2015,07,02,01,58,21.30
2015,07,02,01,59,21.30
2015,07,02,02,00,21.30
2015,07,02,02,01,21.30
2015,07,02,02,02,21.30
2015,07,02,02,03,21.30
2015,07,02,02,04,21.30
2015,07,02,02,05,21.20
2015,07,02,02,06,21.20
2015,07,02,02,07,21.20
2015,07,02,02,08,21.20
2015,07,02,02,09,21.20
2015,07,02,02,10,21.20
2015,07,02,02,11,21.10
2015,07,02,02,12,21.10
2015,07,02,02,13,21.10
2015,07,02,02,14,21.10
2015,07,02,02,15,21.10
2015,07,02,02,16,21.10
2015,07,02,02,17,21.10
2015,07,02,02,18,21.10
2015,07,02,02,19,21.10
2015,07,02,02,20,21.10
2015,07,02,02,21,21.20
2015,07,02,02,22,21.20
2015,07,02,02,23,21.20
2015,07,02,02,24,21.20
2015,07,02,02,25,21.20
2015,07,02,02,26,21.20
2015,07,02,02,27,21.20
2015,07,02,02,28,21.20
2015,07,02,02,29,21.20
2015,07,02,02,30,21.20
2015,07,02,02,31,21.20
2015,07,02,02,32,21.10
2015,07,02,02,33,21.10
2015,07,02,02,34,21.10
2015,07,02,02,35,21.10
2015,07,02,02,36,21.10
2015,07,02,02,37,21.10
2015,07,02,02,38,21.10
2015,07,02,02,39,21.10
2015,07,02,02,40,21.10
2015,07,02,02,41,21.00
2015,07,02,02,42,21.00
2015,07,02,02,43,20.90
2015,07,02,02,44,20.90
2015,07,02,02,45,20.90
2015,07,02,02,46,20.80
2015,07,02,02,47,20.80
2015,07,02,02,48,20.80
2015,07,02,02,49,20.70
2015,07,02,02,50,20.70
2015,07,02,02,51,20.70
2015,07,02,02,52,20.60
2015,07,02,02,53,20.60
2015,07,02,02,54,20.60
2015,07,02,02,55,20.60
2015,07,02,02,56,20.50
2015,07,02,02,57,20.50
2015,07,02,02,58,20.50
2015,07,02,02,59,20.40
2015,07,02,03,00,20.40
2015,07,02,03,01,20.40
2015,07,02,03,02,20.40
2015,07,02,03,06,20.20
2015,07,02,03,07,20.20
2015,07,02,03,08,20.10
2015,07,02,03,09,20.10
2015,07,02,03,10,20.00
2015,07,02,03,11,20.00
2015,07,02,03,12,19.90
2015,07,02,03,13,19.90
2015,07,02,03,14,19.90
2015,07,02,03,15,19.80
2015,07,02,03,16,19.80
2015,07,02,03,17,19.80
2015,07,02,03,18,19.80
2015,07,02,03,19,19.80
2015,07,02,03,20,19.80
2015,07,02,03,21,19.80
2015,07,02,03,22,19.80
2015,07,02,03,23,19.80
2015,07,02,03,24,19.70
2015,07,02,03,25,19.70
2015,07,02,03,26,19.70
2015,07,02,03,27,19.70
2015,07,02,03,28,19.70
2015,07,02,03,29,19.70
2015,07,02,03,30,19.70
2015,07,02,03,31,19.60
2015,07,02,03,32,19.60
2015,07,02,03,33,19.60
2015,07,02,03,34,19.60
2015,07,02,03,35,19.50
2015,07,02,03,36,19.50
2015,07,02,03,37,19.50
2015,07,02,03,38,19.50
2015,07,02,03,39,19.50
2015,07,02,03,40,19.50
2015,07,02,03,41,19.50
2015,07,02,03,42,19.40
2015,07,02,03,43,19.40
2015,07,02,03,44,19.40
2015,07,02,03,45,19.40
2015,07,02,03,46,19.40
2015,07,02,03,47,19.30
2015,07,02,03,48,19.30
2015,07,02,03,49,19.30
2015,07,02,03,50,19.30
2015,07,02,03,51,19.30
2015,07,02,03,52,19.30
2015,07,02,03,53,19.30
2015,07,02,03,54,19.30
2015,07,02,03,55,19.30
2015,07,02,03,56,19.30
2015,07,02,03,57,19.20
2015,07,02,03,58,19.20
2015,07,02,03,59,19.20
2015,07,02,04,00,19.20
2015,07,02,04,01,19.20
2015,07,02,04,02,19.20
2015,07,02,04,03,19.20
2015,07,02,04,04,19.20
2015,07,02,04,05,19.10
2015,07,02,04,06,19.10
2015,07,02,04,07,19.10
2015,07,02,04,08,19.10
2015,07,02,04,09,19.10
2015,07,02,04,10,19.00
2015,07,02,04,11,19.00
2015,07,02,04,12,19.00
2015,07,02,04,13,19.00
2015,07,02,04,14,19.00
2015,07,02,04,15,18.90
2015,07,02,04,16,18.90
2015,07,02,04,17,18.80
2015,07,02,04,18,18.80
2015,07,02,04,19,18.80
2015,07,02,04,20,18.80
2015,07,02,04,21,18.70
2015,07,02,04,22,18.70
2015,07,02,04,23,18.60
2015,07,02,04,24,18.60
2015,07,02,04,25,18.60
2015,07,02,04,26,18.60
2015,07,02,04,27,18.60
2015,07,02,04,28,18.60
2015,07,02,04,29,18.60
2015,07,02,04,30,18.60
2015,07,02,04,31,18.70
2015,07,02,04,32,18.70
2015,07,02,04,33,18.70
2015,07,02,04,34,18.70
2015,07,02,04,35,18.70
2015,07,02,04,36,18.70
2015,07,02,04,37,18.70
2015,07,02,04,38,18.70
2015,07,02,04,39,18.70
2015,07,02,04,40,18.60
2015,07,02,04,41,18.60
2015,07,02,04,42,18.60
2015,07,02,04,43,18.60
2015,07,02,04,44,18.60
2015,07,02,04,45,18.60
2015,07,02,04,46,18.50
2015,07,02,04,47,18.50
2015,07,02,04,48,18.50
2015,07,02,04,49,18.50
2015,07,02,04,50,18.50
2015,07,02,04,51,18.50
2015,07,02,04,52,18.50
2015,07,02,04,53,18.50
2015,07,02,04,54,18.50
2015,07,02,04,55,18.50
2015,07,02,04,56,18.50
2015,07,02,04,57,18.50
2015,07,02,04,58,18.40
2015,07,02,04,59,18.40
2015,07,02,05,00,18.40
2015,07,02,05,01,18.40
2015,07,02,05,02,18.40
2015,07,02,05,03,18.40
2015,07,02,05,04,18.40
2015,07,02,05,05,18.30
2015,07,02,05,06,18.30
2015,07,02,05,07,18.30
2015,07,02,05,08,18.30
2015,07,02,05,09,18.30
2015,07,02,05,10,18.30
2015,07,02,05,11,18.30
2015,07,02,05,12,18.30
2015,07,02,05,13,18.30
2015,07,02,05,14,18.30
2015,07,02,05,15,18.20
2015,07,02,05,16,18.20
2015,07,02,05,17,18.20
2015,07,02,05,18,18.20
2015,07,02,05,19,18.10
2015,07,02,05,20,18.10
2015,07,02,05,21,18.10
2015,07,02,05,22,18.10
2015,07,02,05,23,18.10
2015,07,02,05,24,18.10
2015,07,02,05,25,18.00
2015,07,02,05,26,18.00
2015,07,02,05,27,18.00
2015,07,02,05,28,18.00
2015,07,02,05,29,18.00
2015,07,02,05,30,18.00
2015,07,02,05,31,18.00
2015,07,02,05,32,18.00
2015,07,02,05,33,18.00
2015,07,02,05,34,18.00
2015,07,02,05,35,17.90
2015,07,02,05,36,17.90
2015,07,02,05,37,17.90
2015,07,02,05,38,17.90
2015,07,02,05,39,17.90
2015,07,02,05,40,17.90
2015,07,02,05,41,17.90
2015,07,02,05,42,17.80
2015,07,02,05,43,17.80
2015,07,02,05,44,17.80
2015,07,02,05,45,17.80
2015,07,02,05,46,17.80
2015,07,02,05,47,17.80
2015,07,02,05,48,17.80
2015,07,02,05,49,17.80
2015,07,02,05,50,17.80
2015,07,02,05,51,17.90
2015,07,02,05,52,17.90
2015,07,02,05,53,17.90
2015,07,02,05,54,17.90
2015,07,02,05,55,18.00
2015,07,02,05,56,18.00
2015,07,02,05,57,18.10
2015,07,02,05,58,18.10
2015,07,02,05,59,18.10
2015,07,02,06,00,18.10
2015,07,02,06,01,18.10
2015,07,02,06,02,18.10
2015,07,02,06,03,18.10
2015,07,02,06,04,18.10
2015,07,02,06,05,18.10
2015,07,02,06,06,18.10
2015,07,02,06,07,18.10
2015,07,02,06,08,18.10
2015,07,02,06,09,18.00
2015,07,02,06,10,18.00
2015,07,02,06,11,18.00
2015,07,02,06,12,18.00
2015,07,02,06,13,18.00
2015,07,02,06,14,18.00
2015,07,02,06,15,18.00
2015,07,02,06,16,17.90
2015,07,02,06,17,18.00
2015,07,02,06,18,17.90
2015,07,02,06,19,17.90
2015,07,02,06,20,17.90
2015,07,02,06,21,17.90
2015,07,02,06,22,17.90
2015,07,02,06,23,17.90
2015,07,02,06,24,17.90
2015,07,02,06,25,17.90
2015,07,02,06,26,17.90
2015,07,02,06,27,17.90
2015,07,02,06,28,17.90
2015,07,02,06,29,17.90
2015,07,02,06,30,17.80
2015,07,02,06,31,17.80
2015,07,02,06,32,17.80
2015,07,02,06,33,17.90
2015,07,02,06,34,17.90
2015,07,02,06,35,17.90
2015,07,02,06,36,17.90
2015,07,02,06,37,17.90
2015,07,02,06,38,17.90
2015,07,02,06,39,18.00
2015,07,02,06,40,18.00
2015,07,02,06,41,18.10
2015,07,02,06,42,18.20
2015,07,02,06,43,18.30
2015,07,02,06,44,18.30
2015,07,02,06,45,18.40
2015,07,02,06,46,18.40
2015,07,02,06,47,18.40
2015,07,02,06,48,18.40
2015,07,02,06,49,18.50
2015,07,02,06,50,18.50
2015,07,02,06,51,18.60
2015,07,02,06,52,18.60
2015,07,02,06,53,18.60
2015,07,02,06,54,18.70
2015,07,02,06,55,18.80
2015,07,02,06,56,18.80
2015,07,02,06,57,18.90
2015,07,02,06,58,19.00
2015,07,02,06,59,19.10
2015,07,02,07,00,19.20
2015,07,02,07,01,19.30
2015,07,02,07,02,19.40
2015,07,02,07,03,19.50
2015,07,02,07,04,19.50
2015,07,02,07,05,19.60
2015,07,02,07,06,19.60
2015,07,02,07,07,19.70
2015,07,02,07,08,19.80
2015,07,02,07,09,19.80
2015,07,02,07,10,19.90
2015,07,02,07,11,19.90
2015,07,02,07,12,20.00
2015,07,02,07,13,20.10
2015,07,02,07,14,20.10
2015,07,02,07,15,20.10
2015,07,02,07,16,20.20
2015,07,02,07,17,20.20
2015,07,02,07,18,20.20
2015,07,02,07,19,20.30
2015,07,02,07,20,20.30
2015,07,02,07,21,20.30
2015,07,02,07,22,20.30
2015,07,02,07,23,20.30
2015,07,02,07,24,20.30
2015,07,02,07,25,20.30
2015,07,02,07,26,20.30
2015,07,02,07,27,20.30
2015,07,02,07,28,20.30
2015,07,02,07,29,20.30
2015,07,02,07,30,20.30
2015,07,02,07,31,20.30
2015,07,02,07,32,20.30
2015,07,02,07,33,20.40
2015,07,02,07,34,20.40
2015,07,02,07,35,20.50
2015,07,02,07,36,20.60
2015,07,02,07,37,20.60
2015,07,02,07,38,20.60
2015,07,02,07,39,20.60
2015,07,02,07,40,20.60
2015,07,02,07,41,20.60
2015,07,02,07,42,20.60
2015,07,02,07,43,20.70
2015,07,02,07,44,20.70
2015,07,02,07,45,20.70
2015,07,02,07,46,20.70
2015,07,02,07,47,20.80
2015,07,02,07,48,20.90
2015,07,02,07,49,21.00
2015,07,02,07,50,21.10
2015,07,02,07,51,21.10
2015,07,02,07,52,21.20
2015,07,02,07,53,21.30
2015,07,02,07,54,21.30
2015,07,02,07,55,21.30
2015,07,02,07,56,21.40
2015,07,02,07,57,21.50
2015,07,02,07,58,21.70
2015,07,02,07,59,21.80
2015,07,02,08,00,21.90
2015,07,02,08,01,21.90
2015,07,02,08,02,22.00
2015,07,02,08,03,22.00
2015,07,02,08,04,22.10
2015,07,02,08,05,22.10
2015,07,02,08,06,22.10
2015,07,02,08,07,22.10
2015,07,02,08,08,22.10
2015,07,02,08,09,22.10
2015,07,02,08,10,22.10
2015,07,02,08,11,22.20
2015,07,02,08,12,22.20
2015,07,02,08,13,22.20
2015,07,02,08,14,22.20
2015,07,02,08,15,22.20
2015,07,02,08,16,22.20
2015,07,02,08,17,22.20
2015,07,02,08,18,22.20
2015,07,02,08,19,22.20
2015,07,02,08,20,22.30
2015,07,02,08,21,22.30
2015,07,02,08,22,22.20
2015,07,02,08,23,22.20
2015,07,02,08,24,22.30
2015,07,02,08,25,22.30
2015,07,02,08,26,22.30
2015,07,02,08,27,22.30
2015,07,02,08,28,22.40
2015,07,02,08,29,22.40
2015,07,02,08,30,22.50
2015,07,02,08,31,22.60
2015,07,02,08,32,22.60
2015,07,02,08,33,22.70
2015,07,02,08,34,22.80
2015,07,02,08,35,22.80
2015,07,02,08,36,22.90
2015,07,02,08,37,22.90
2015,07,02,08,38,23.00
2015,07,02,08,39,23.00
2015,07,02,08,40,23.00
2015,07,02,08,41,23.10
2015,07,02,08,42,23.20
2015,07,02,08,43,23.20
2015,07,02,08,44,23.30
2015,07,02,08,45,23.30
2015,07,02,08,46,23.30
2015,07,02,08,47,23.30
2015,07,02,08,48,23.30
2015,07,02,08,49,23.30
2015,07,02,08,50,23.40
2015,07,02,08,51,23.40
2015,07,02,08,52,23.40
2015,07,02,08,53,23.50
2015,07,02,08,54,23.60
2015,07,02,08,55,23.70
2015,07,02,08,56,23.70
2015,07,02,08,57,23.80
2015,07,02,08,58,23.90
2015,07,02,08,59,24.00
2015,07,02,09,00,24.10
2015,07,02,09,01,24.10
2015,07,02,09,02,24.20
2015,07,02,09,03,24.20
2015,07,02,09,04,24.20
2015,07,02,09,05,24.20
2015,07,02,09,06,24.20
2015,07,02,09,07,24.20
2015,07,02,09,08,24.10
2015,07,02,09,09,24.20
2015,07,02,09,10,24.20
2015,07,02,09,11,24.20
2015,07,02,09,12,24.20
2015,07,02,09,13,24.30
2015,07,02,09,14,24.30
2015,07,02,09,15,24.30
2015,07,02,09,16,24.30
2015,07,02,09,17,24.30
2015,07,02,09,18,24.30
2015,07,02,09,19,24.30
2015,07,02,09,20,24.40
2015,07,02,09,21,24.40
2015,07,02,09,22,24.50
2015,07,02,09,23,24.60
2015,07,02,09,24,24.60
2015,07,02,09,25,24.70
2015,07,02,09,26,24.70
2015,07,02,09,27,24.70
2015,07,02,09,28,24.70
2015,07,02,09,29,24.80
2015,07,02,09,30,24.80
2015,07,02,09,31,24.90
2015,07,02,09,32,25.00
2015,07,02,09,33,25.10
2015,07,02,09,34,25.20
2015,07,02,09,35,25.20
2015,07,02,09,36,25.30
2015,07,02,09,37,25.30
2015,07,02,09,38,25.40
2015,07,02,09,39,25.50
2015,07,02,09,40,25.60
2015,07,02,09,41,25.70
2015,07,02,09,42,25.70
2015,07,02,09,43,25.80
2015,07,02,09,44,25.80
2015,07,02,09,45,25.90
2015,07,02,09,46,25.90
2015,07,02,09,47,25.90
2015,07,02,09,48,26.10
2015,07,02,09,49,26.10
2015,07,02,09,50,26.20
2015,07,02,09,51,26.20
2015,07,02,09,52,26.20
2015,07,02,09,53,26.20
2015,07,02,09,54,26.30
2015,07,02,09,55,26.40
2015,07,02,09,56,26.50
2015,07,02,09,57,26.50
2015,07,02,09,58,26.50
2015,07,02,09,59,26.50
2015,07,02,10,00,26.50
2015,07,02,10,01,26.40
2015,07,02,10,02,26.40
2015,07,02,10,03,26.50
2015,07,02,10,04,26.50
2015,07,02,10,05,26.60
2015,07,02,10,06,26.60
2015,07,02,10,07,26.60
2015,07,02,10,08,26.70
2015,07,02,10,09,26.80
2015,07,02,10,10,26.80
2015,07,02,10,11,26.90
2015,07,02,10,12,26.90
2015,07,02,10,13,27.00
2015,07,02,10,14,27.10
2015,07,02,10,15,27.10
2015,07,02,10,16,27.20
2015,07,02,10,17,27.20
2015,07,02,10,18,27.30
2015,07,02,10,19,27.30
2015,07,02,10,20,27.30
2015,07,02,10,21,27.30
2015,07,02,10,22,27.30
2015,07,02,10,23,27.30
2015,07,02,10,24,27.30
2015,07,02,10,25,27.30
2015,07,02,10,26,27.30
2015,07,02,10,27,27.30
2015,07,02,10,28,27.30
2015,07,02,10,29,27.30
2015,07,02,10,30,27.30
2015,07,02,10,31,27.40
2015,07,02,10,32,27.50
2015,07,02,10,33,27.60
2015,07,02,10,34,27.60
2015,07,02,10,35,27.70
2015,07,02,10,36,27.80
2015,07,02,10,37,27.80
2015,07,02,10,38,27.80
2015,07,02,10,39,27.80
2015,07,02,10,40,27.80
2015,07,02,10,41,27.90
2015,07,02,10,42,27.90
2015,07,02,10,43,28.00
2015,07,02,10,44,28.10
2015,07,02,10,45,28.10
2015,07,02,10,46,28.20
2015,07,02,10,47,28.30
2015,07,02,10,48,28.30
2015,07,02,10,49,28.30
2015,07,02,10,50,28.40
2015,07,02,10,51,28.50
2015,07,02,10,52,28.50
2015,07,02,10,53,28.50
2015,07,02,10,54,28.60
2015,07,02,10,55,28.60
2015,07,02,10,56,28.70
2015,07,02,10,57,28.70
2015,07,02,10,58,28.70
2015,07,02,10,59,28.70
2015,07,02,11,00,28.70
2015,07,02,11,01,28.70
2015,07,02,11,02,28.80
2015,07,02,11,03,28.80
2015,07,02,11,04,28.80
2015,07,02,11,05,28.90
2015,07,02,11,06,28.90
2015,07,02,11,07,29.00
2015,07,02,11,08,29.00
2015,07,02,11,09,29.10
2015,07,02,11,10,29.10
2015,07,02,11,11,29.20
2015,07,02,11,12,29.20
2015,07,02,11,13,29.20
2015,07,02,11,14,29.30
2015,07,02,11,15,29.40
2015,07,02,11,16,29.40
2015,07,02,11,17,29.40
2015,07,02,11,18,29.40
2015,07,02,11,19,29.40
2015,07,02,11,20,29.40
2015,07,02,11,21,29.50
2015,07,02,11,22,29.50
2015,07,02,11,23,29.60
2015,07,02,11,24,29.60
2015,07,02,11,25,29.60
2015,07,02,11,26,29.60
2015,07,02,11,27,29.60
2015,07,02,11,28,29.60
2015,07,02,11,29,29.70
2015,07,02,11,30,29.80
2015,07,02,11,31,29.80
2015,07,02,11,32,29.80
2015,07,02,11,33,29.80
2015,07,02,11,34,29.90
2015,07,02,11,35,30.00
2015,07,02,11,36,30.00
2015,07,02,11,37,30.10
2015,07,02,11,38,30.20
2015,07,02,11,39,30.30
2015,07,02,11,40,30.40
2015,07,02,11,41,30.40
2015,07,02,11,42,30.50
2015,07,02,11,43,30.50
2015,07,02,11,44,30.60
2015,07,02,11,45,30.60
2015,07,02,11,46,30.60
2015,07,02,11,47,30.60
2015,07,02,11,48,30.60
2015,07,02,11,49,30.60
2015,07,02,11,50,30.60
2015,07,02,11,51,30.60
2015,07,02,11,52,30.60
2015,07,02,11,53,30.70
2015,07,02,11,54,30.70
2015,07,02,11,55,30.80
2015,07,02,11,56,30.80
2015,07,02,11,57,30.90
2015,07,02,11,58,30.90
2015,07,02,11,59,30.90
2015,07,02,12,00,30.90
2015,07,02,12,01,30.90
2015,07,02,12,02,30.90
2015,07,02,12,03,30.90
2015,07,02,12,04,30.90
2015,07,02,12,05,30.90
2015,07,02,12,06,30.90
2015,07,02,12,07,30.90
2015,07,02,12,08,30.90
2015,07,02,12,09,30.90
2015,07,02,12,10,30.90
2015,07,02,12,11,31.00
2015,07,02,12,12,31.00
2015,07,02,12,13,31.10
2015,07,02,12,14,31.20
2015,07,02,12,15,31.30
2015,07,02,12,16,31.40
2015,07,02,12,17,31.40
2015,07,02,12,18,31.50
2015,07,02,12,19,31.50
2015,07,02,12,20,31.60
2015,07,02,12,21,31.60
2015,07,02,12,22,31.70
2015,07,02,12,23,31.70
2015,07,02,12,24,31.70
2015,07,02,12,25,31.70
2015,07,02,12,26,31.80
2015,07,02,12,27,31.80
2015,07,02,12,28,31.80
2015,07,02,12,29,31.80
2015,07,02,12,30,31.80
2015,07,02,12,31,31.70
2015,07,02,12,32,31.70
2015,07,02,12,33,31.70
2015,07,02,12,34,31.70
2015,07,02,12,35,31.80
2015,07,02,12,36,31.80
2015,07,02,12,37,31.90
2015,07,02,12,38,31.90
2015,07,02,12,39,31.90
2015,07,02,12,40,31.90
2015,07,02,12,41,31.80
2015,07,02,12,42,31.90
2015,07,02,12,43,31.90
2015,07,02,12,44,32.00
2015,07,02,12,45,32.00
2015,07,02,12,46,32.10
2015,07,02,12,47,32.30
2015,07,02,12,48,32.30
2015,07,02,12,49,32.30
2015,07,02,12,50,32.30
2015,07,02,12,51,32.30
2015,07,02,12,52,32.40
2015,07,02,12,53,32.40
2015,07,02,12,54,32.40
2015,07,02,12,55,32.40
2015,07,02,12,56,32.50
2015,07,02,12,57,32.40
2015,07,02,12,58,32.50
2015,07,02,12,59,32.50
2015,07,02,13,00,32.60
2015,07,02,13,01,32.70
2015,07,02,13,02,32.80
2015,07,02,13,03,32.80
2015,07,02,13,04,32.80
2015,07,02,13,05,32.80
2015,07,02,13,06,32.80
2015,07,02,13,07,32.70
2015,07,02,13,08,32.70
2015,07,02,13,09,32.70
2015,07,02,13,10,32.70
2015,07,02,13,11,32.70
2015,07,02,13,12,32.70
2015,07,02,13,13,32.80
2015,07,02,13,14,32.80
2015,07,02,13,15,32.90
2015,07,02,13,16,33.00
2015,07,02,13,17,33.10
2015,07,02,13,18,33.30
2015,07,02,13,19,33.40
2015,07,02,13,20,33.40
2015,07,02,13,21,33.50
2015,07,02,13,22,33.50
2015,07,02,13,23,33.60
2015,07,02,13,24,33.60
2015,07,02,13,25,33.60
2015,07,02,13,26,33.60
2015,07,02,13,27,33.60
2015,07,02,13,28,33.60
2015,07,02,13,29,33.50
2015,07,02,13,30,33.40
2015,07,02,13,31,33.40
2015,07,02,13,32,33.40
2015,07,02,13,33,33.40
2015,07,02,13,34,33.40
2015,07,02,13,35,33.40
2015,07,02,13,36,33.40
2015,07,02,13,37,33.40
2015,07,02,13,38,33.40
2015,07,02,13,39,33.40
2015,07,02,13,40,33.50
2015,07,02,13,41,33.60
2015,07,02,13,42,33.70
2015,07,02,13,43,33.70
2015,07,02,13,44,33.70
2015,07,02,13,45,33.70
2015,07,02,13,46,33.60
2015,07,02,13,47,33.60
2015,07,02,13,48,33.60
2015,07,02,13,49,33.70
2015,07,02,13,50,33.80
2015,07,02,13,51,33.80
2015,07,02,13,52,33.90
2015,07,02,13,53,33.90
2015,07,02,13,54,34.00
2015,07,02,13,55,34.00
2015,07,02,13,56,34.00
2015,07,02,13,57,33.90
2015,07,02,13,58,33.90
2015,07,02,13,59,33.80
2015,07,02,14,00,33.90
2015,07,02,14,01,33.90
2015,07,02,14,02,34.00
2015,07,02,14,03,34.10
2015,07,02,14,04,34.10
2015,07,02,14,05,34.10
2015,07,02,14,06,34.10
2015,07,02,14,07,34.10
2015,07,02,14,08,34.20
2015,07,02,14,09,34.30
2015,07,02,14,10,34.30
2015,07,02,14,11,34.30
2015,07,02,14,12,34.30
2015,07,02,14,13,34.20
2015,07,02,14,14,34.20
2015,07,02,14,15,34.20
2015,07,02,14,16,34.20
2015,07,02,14,17,34.30
2015,07,02,14,18,34.30
2015,07,02,14,19,34.40
2015,07,02,14,20,34.50
2015,07,02,14,21,34.50
2015,07,02,14,22,34.40
2015,07,02,14,23,34.40
2015,07,02,14,24,34.40
2015,07,02,14,25,34.40
2015,07,02,14,26,34.30
2015,07,02,14,27,34.30
2015,07,02,14,28,34.30
2015,07,02,14,29,34.30
2015,07,02,14,30,34.30
2015,07,02,14,31,34.40
2015,07,02,14,32,34.50
2015,07,02,14,33,34.50
2015,07,02,14,34,34.40
2015,07,02,14,35,34.40
2015,07,02,14,36,34.40
2015,07,02,14,37,34.50
2015,07,02,14,38,34.50
2015,07,02,14,39,34.60
2015,07,02,14,40,34.70
2015,07,02,14,41,34.60
2015,07,02,14,42,34.60
2015,07,02,14,43,34.50
2015,07,02,14,44,34.40
2015,07,02,14,45,34.40
2015,07,02,14,46,34.30
2015,07,02,14,47,34.30
2015,07,02,14,48,34.30
2015,07,02,14,49,34.30
2015,07,02,14,50,34.30
2015,07,02,14,51,34.30
2015,07,02,14,52,34.30
2015,07,02,14,53,34.30
2015,07,02,14,54,34.30
2015,07,02,14,55,34.50
2015,07,02,14,56,34.60
2015,07,02,14,57,34.70
2015,07,02,14,58,34.80
2015,07,02,14,59,34.80
2015,07,02,15,00,34.80
2015,07,02,15,01,34.90
2015,07,02,15,02,34.90
2015,07,02,15,03,34.90
2015,07,02,15,04,34.90
2015,07,02,15,05,34.90
2015,07,02,15,06,34.90
2015,07,02,15,07,34.80
2015,07,02,15,08,34.70
2015,07,02,15,09,34.70
2015,07,02,15,10,34.70
2015,07,02,15,11,34.70
2015,07,02,15,12,34.70
2015,07,02,15,13,34.70
2015,07,02,15,14,34.70
2015,07,02,15,15,34.70
2015,07,02,15,16,34.80
2015,07,02,15,17,34.80
2015,07,02,15,18,34.90
2015,07,02,15,19,35.00
2015,07,02,15,20,35.10
2015,07,02,15,21,35.10
2015,07,02,15,22,35.10
2015,07,02,15,23,35.10
2015,07,02,15,24,35.10
2015,07,02,15,25,35.10
2015,07,02,15,26,35.10
2015,07,02,15,27,35.10
2015,07,02,15,28,35.20
2015,07,02,15,29,35.10
2015,07,02,15,30,35.10
2015,07,02,15,31,35.00
2015,07,02,15,32,35.00
2015,07,02,15,33,35.00
2015,07,02,15,34,35.10
2015,07,02,15,35,35.10
2015,07,02,15,36,35.10
2015,07,02,15,37,35.00
2015,07,02,15,38,35.10
2015,07,02,15,39,35.20
2015,07,02,15,40,35.20
2015,07,02,15,41,35.30
2015,07,02,15,42,35.40
2015,07,02,15,43,35.40
2015,07,02,15,44,35.50
2015,07,02,15,45,35.50
2015,07,02,15,46,35.50
2015,07,02,15,47,35.40
2015,07,02,15,48,35.40
2015,07,02,15,49,35.40
2015,07,02,15,50,35.50
2015,07,02,15,51,35.50
2015,07,02,15,52,35.50
2015,07,02,15,53,35.50
2015,07,02,15,54,35.40
2015,07,02,15,55,35.40
2015,07,02,15,56,35.30
2015,07,02,15,57,35.30
2015,07,02,15,58,35.30
2015,07,02,15,59,35.30
2015,07,02,16,00,35.20
2015,07,02,16,01,35.20
2015,07,02,16,02,35.10
2015,07,02,16,03,34.90
2015,07,02,16,04,34.90
2015,07,02,16,05,34.80
2015,07,02,16,06,34.80
2015,07,02,16,07,34.80
2015,07,02,16,08,34.90
2015,07,02,16,09,35.00
2015,07,02,16,10,35.10
2015,07,02,16,11,35.20
2015,07,02,16,12,35.30
2015,07,02,16,13,35.40
2015,07,02,16,14,35.50
2015,07,02,16,15,35.60
2015,07,02,16,16,35.50
2015,07,02,16,17,35.50
2015,07,02,16,18,35.40
2015,07,02,16,19,35.30
2015,07,02,16,20,35.20
2015,07,02,16,21,35.10
2015,07,02,16,22,35.00
2015,07,02,16,23,34.90
2015,07,02,16,24,34.90
2015,07,02,16,25,34.90
2015,07,02,16,26,34.90
2015,07,02,16,27,34.90
2015,07,02,16,28,35.00
2015,07,02,16,29,35.10
2015,07,02,16,30,35.10
2015,07,02,16,31,35.10
2015,07,02,16,32,35.10
2015,07,02,16,33,35.10
2015,07,02,16,34,35.00
2015,07,02,16,35,35.00
2015,07,02,16,36,35.00
2015,07,02,16,37,35.00
2015,07,02,16,38,35.10
2015,07,02,16,39,35.10
2015,07,02,16,40,35.00
2015,07,02,16,41,35.00
2015,07,02,16,42,34.90
2015,07,02,16,43,34.90
2015,07,02,16,44,34.80
2015,07,02,16,45,34.80
2015,07,02,16,46,34.70
2015,07,02,16,47,34.60
2015,07,02,16,48,34.60
2015,07,02,16,49,34.60
2015,07,02,16,50,34.60
2015,07,02,16,51,34.60
2015,07,02,16,52,34.60
2015,07,02,16,53,34.60
2015,07,02,16,54,34.60
2015,07,02,16,55,34.60
2015,07,02,16,56,34.70
2015,07,02,16,57,34.70
2015,07,02,16,58,34.70
2015,07,02,16,59,34.70
2015,07,02,17,00,34.60
2015,07,02,17,01,34.50
2015,07,02,17,02,34.50
2015,07,02,17,03,34.40
2015,07,02,17,04,34.40
2015,07,02,17,05,34.40
2015,07,02,17,06,34.30
2015,07,02,17,07,34.30
2015,07,02,17,08,34.30
2015,07,02,17,09,34.30
2015,07,02,17,10,34.40
2015,07,02,17,11,34.50
2015,07,02,17,12,34.60
2015,07,02,17,13,34.70
2015,07,02,17,14,34.70
2015,07,02,17,15,34.70
2015,07,02,17,16,34.70
2015,07,02,17,17,34.70
2015,07,02,17,18,34.80
2015,07,02,17,19,34.80
2015,07,02,17,20,34.70
2015,07,02,17,21,34.70
2015,07,02,17,22,34.70